GW3474 Weather Reports


Display with metric or nautical units.
time (UTC)temp
F
wind
direction
speed
MPH
gust
MPH
rain 1hr
in
rain 24hr
in
rain mn
in
humidity
%
barometer
mb
20260505021516 69 0.0 0.0 0.00 0.00 0.00 50 1004.1
20260505020516 69 0.0 0.0 0.00 0.00 0.00 50 1003.8
20260505015556 69 0.0 0.0 0.00 0.00 0.00 50 1003.8
20260505014515 70 0.0 0.0 0.00 0.00 0.00 48 1003.6
20260505013515 70 0.0 0.0 0.00 0.00 0.00 47 1003.5
20260505012517 71 0.0 0.0 0.00 0.00 0.00 47 1003.5
20260505011516 71 0.0 0.0 0.00 0.00 0.00 45 1003.3
20260505010516 71 0.0 0.0 0.00 0.00 0.00 45 1003.4
20260505005536 71 0.0 0.0 0.00 0.00 0.00 46 1003.4
20260505004516 72 0.0 0.0 0.00 0.00 0.00 45 1003.4
20260505003535 73 0.0 0.0 0.00 0.00 0.00 43 1003.6
20260505002515 73 0.0 0.0 0.00 0.00 0.00 43 1003.6
20260505001515 75 0.0 0.0 0.00 0.00 0.00 38 1003.5
20260505000536 80 0.0 0.0 0.00 0.00 0.00 30 1003.7
20260504235515 83 0.0 0.0 0.00 0.00 0.00 22 1003.6
20260504234516 83 0.0 0.0 0.00 0.00 0.00 21 1003.8
20260504233515 83 0.0 0.0 0.00 0.00 0.00 21 1003.8
20260504232515 83 0.0 0.0 0.00 0.00 0.00 22 1003.9
20260504231515 83 0.0 0.0 0.00 0.00 0.00 22 1003.9
20260504230515 83 0.0 0.0 0.00 0.00 0.00 23 1004.0
20260504225517 84 0.0 0.0 0.00 0.00 0.00 23 1004.2
20260504224515 83 0.0 0.0 0.00 0.00 0.00 24 1004.1
20260504223515 83 0.0 0.0 0.00 0.00 0.00 23 1004.1
20260504222515 84 0.0 0.0 0.00 0.00 0.00 23 1004.2
20260504221515 84 0.0 0.0 0.00 0.00 0.00 23 1004.2
20260504220536 84 0.0 0.0 0.00 0.00 0.00 23 1004.4
20260504215515 85 0.0 0.0 0.00 0.00 0.00 22 1004.4
20260504214516 85 0.0 0.0 0.00 0.00 0.00 21 1004.5
20260504213515 85 0.0 0.0 0.00 0.00 0.00 22 1004.6
20260504212515 86 0.0 0.0 0.00 0.00 0.00 21 1004.8
20260504211515 86 0.0 0.0 0.00 0.00 0.00 20 1005.0
20260504210515 85 0.0 0.0 0.00 0.00 0.00 20 1005.3
20260504205515 84 0.0 0.0 0.00 0.00 0.00 23 1005.2
20260504204535 83 0.0 0.0 0.00 0.00 0.00 23 1005.4
20260504203516 83 0.0 0.0 0.00 0.00 0.00 23 1005.7
20260504202515 83 0.0 0.0 0.00 0.00 0.00 22 1005.7
20260504201516 83 0.0 0.0 0.00 0.00 0.00 22 1005.7
20260504200516 84 0.0 0.0 0.00 0.00 0.00 21 1005.7
20260504195516 84 0.0 0.0 0.00 0.00 0.00 19 1006.0
20260504194515 85 0.0 0.0 0.00 0.00 0.00 20 1006.2
20260504193515 85 0.0 0.0 0.00 0.00 0.00 19 1006.4
20260504192516 85 0.0 0.0 0.00 0.00 0.00 19 1006.7
20260504191516 85 0.0 0.0 0.00 0.00 0.00 19 1006.8
20260504190535 86 0.0 0.0 0.00 0.00 0.00 18 1006.9
20260504185516 85 0.0 0.0 0.00 0.00 0.00 19 1007.0
20260504184515 85 0.0 0.0 0.00 0.00 0.00 19 1007.2
20260504183516 84 0.0 0.0 0.00 0.00 0.00 20 1007.3
20260504182515 85 0.0 0.0 0.00 0.00 0.00 18 1007.5
20260504181516 85 0.0 0.0 0.00 0.00 0.00 16 1007.6
20260504180516 85 0.0 0.0 0.00 0.00 0.00 19 1007.6
20260504175515 85 0.0 0.0 0.00 0.00 0.00 19 1007.8
20260504174518 85 0.0 0.0 0.00 0.00 0.00 19 1008.0
20260504173516 85 0.0 0.0 0.00 0.00 0.00 19 1008.1
20260504172515 85 0.0 0.0 0.00 0.00 0.00 21 1008.2
20260504171515 83 0.0 0.0 0.00 0.00 0.00 22 1008.2
20260504170516 83 0.0 0.0 0.00 0.00 0.00 22 1008.2
20260504150536 72 0.0 0.0 0.00 0.00 0.00 40 1008.0
20260504140516 65 0.0 0.0 0.00 0.00 0.00 51 1008.5
20260504130518 55 0.0 0.0 0.00 0.00 0.00 67 1007.9
20260504110515 54 0.0 0.0 0.00 0.00 0.00 66 1007.8
20260504100516 56 0.0 0.0 0.00 0.00 0.00 64 1008.5
20260504081516 58 0.0 0.0 0.00 0.00 0.00 57 1009.1
20260504080515 59 0.0 0.0 0.00 0.00 0.00 55 1009.2
20260504050516 63 0.0 0.0 0.00 0.00 0.00 45 1010.4
20260504045557 63 0.0 0.0 0.00 0.00 0.00 44 1010.4
20260504044516 63 0.0 0.0 0.00 0.00 0.00 43 1010.4
20260504043515 64 0.0 0.0 0.00 0.00 0.00 42 1010.4
20260504042515 64 0.0 0.0 0.00 0.00 0.00 41 1010.4
20260504041536 64 0.0 0.0 0.00 0.00 0.00 40 1010.4
20260504040537 65 0.0 0.0 0.00 0.00 0.00 40 1010.4
20260504035515 65 0.0 0.0 0.00 0.00 0.00 38 1010.4
20260504034515 66 0.0 0.0 0.00 0.00 0.00 37 1010.5
20260504033515 67 0.0 0.0 0.00 0.00 0.00 35 1010.5
20260504032515 68 0.0 0.0 0.00 0.00 0.00 33 1010.4
20260504031515 68 0.0 0.0 0.00 0.00 0.00 32 1010.4
20260504030516 68 0.0 0.0 0.00 0.00 0.00 32 1010.1
20260504025515 69 0.0 0.0 0.00 0.00 0.00 31 1010.1
20260504024515 70 0.0 0.0 0.00 0.00 0.00 29 1010.0
20260504023537 71 0.0 0.0 0.00 0.00 0.00 28 1009.6
20260504022516 71 0.0 0.0 0.00 0.00 0.00 27 1009.6